Showing default

YAOGAN-39 04C, 58145

Orbit data source: Space-Track

YAOGAN-39 04C, 58145 is a payload satellite owned by PLA GAD (CN) in LEO that was launched on Mon, 23 Oct 2023 UTC via a CHANG ZHENG 2D launch vehicle from the Xichang Space Center, China (XSC). Payloads include a variety of satellites, spacecraft, and rockets equipped with specific instruments for various scientific and technological missions. These include communications satellites like Starlink; space stations such as the ISS; scientific satellites like the Hubble; Earth observation satellites from companies like Planet Labs, Umbra, and HawkEye 360; GPS; miniature CubeSats for education and research; and military/defense satellites.

Loading next visibility...
YAOGAN-39 04C details
Identifier
58145, 2023-163E
Orbit
LEO
Last TLE update14 hours ago
Origin
Flag of CNPLA GAD (CN / PRC)
ManufacturerDFH
MissionOperational Defense Sigint
Bus & MotorUnknown
Mass~300 kg wet, ~300 kg dry
Launch date (UTC)
2023-10-23 (1 year ago)
Launch vehicle
CHANG ZHENG 2D
Launch site
Xichang Space Center, China (XSC)
Object type
Payload
Rocket body
Debris
Shape & HBRBox + 2 Pan, 5 m
Radar Cross Section11.063 m², Large (>1 m²)

Expand to show TLE details & history

TLE from 14 hours ago
0 YAOGAN-39 04C
1 58145U 23163E   24348.07656708  .00017427  00000-0  72088-3 0  9997
2 58145  34.9929 210.5375 0003149 349.8502  10.2149 15.23106677 63501
Epoch: 2024-12-13T01:50Z
Definitive object data (Epoch: 2024-12-13T01:50:15.395Z)
Latitude-0°
Longitude100.72562°
Altitude493.253 km
Speed7.622 km/s
True Right ascension14h 02m 08s
True Declination0° 00' 00"
Sunlit
Object was in daylight at TLE epoch
Visualization TLE readout
Latitude-7.96719°
Longitude85.5623°
Altitude494.563 km
Speed7.62 km/s
Apparent Right ascension10h 27m 34s
Apparent Declination-60° 15' 16"
Sunlit
Object is in daylight
Visualization observer readout
Local Sidereal Time14:26:56
Azimuth207.449° SW
Elevation-21.465°
Doppler factor1
Orbital elements
Apogee altitude501.894 km
Perigee altitude497.562 km
Semi-major axis6,877.865 km
Eccentricity0.0003149
Inclination34.9929°
RAAN210.5375°
Arg. of periapsis349.8502°
True anomaly10.2213°
Mean anomaly10.2149°
Eccentric anomaly10.2181°
Mean motion3.80507 °/min
BSTAR0.00072088
Orbital period94.61 mins
Loading maneuver chart data...
Loading historical data...
Loading historical data...
Loading historical data...
Loading historical data...
Loading historical data...
Loading historical data...
Loading historical data...

YAOGAN-39 04C Visibility forecast

Observer location: undefined°, undefined

Span
Click to sort rows by Start time (UTC) header in descending order
Start Az.
Max El. time (UTC)
Max El. Az.
Max El.
End time (UTC)
End Az.
5 mins2024-12-13 19:24:05.986Z217.374° SW2024-12-13 19:27:05.986Z157.343° SSE23.413°2024-12-13 19:29:05.986Z116.865° SE
5 mins2024-12-13 21:04:05.986Z237.571° WSW2024-12-13 21:06:05.986Z186.68° SSW31.972°2024-12-13 21:09:05.986Z114.922° SE
4 mins2024-12-13 22:44:05.986Z233.876° WSW2024-12-13 22:46:05.986Z183.345° SSW24.323°2024-12-13 22:48:05.986Z143.966° SSE
|